    Orbital elements:
    2019 HC                                                  Earth MOID = 0.1941 AU
    Epoch 2019 Apr. 27.0 TT = JDT 2458600.5                 Williams
    M 359.59833              (2000.0)            P               Q
    n   0.22591720     Peri.    6.42755     -0.75532593     +0.56246494
    a   2.6699503      Node   215.55632     -0.62408454     -0.77396650
    e   0.5511701      Incl.   35.33637     -0.20000309     +0.29087635
    P   4.36           H   17.3           G   0.15           U   0
    Residuals in seconds of arc
    150605 F51  0.3-  0.2+    190501 323  0.3+  0.8+    190601 H21  0.0   0.2-
    150605 F51  0.2-  0.0     190501 A53  0.1-  0.5+    190601 H21  0.1+  0.3-
    150605 F51  0.4-  0.1-    190501 A53  0.0   0.4+    190601 H21  0.0   0.2-
    150605 F51  0.2+  0.1+    190501 A53  0.1+  0.4+    190601 H21  0.0   0.2-
    150705 F51  0.1+  0.0     190501 160  0.1-  0.1+    190601 108  0.2+  0.1+
    150803 F51  0.0   0.0     190501 160  0.1+  0.1+    190601 108  0.0   0.1-
    150803 F51  0.1-  0.1-    190501 160  0.1-  0.0     190601 108  0.0   0.2+
    150803 F51  0.1+  0.1-    190501 A53  0.1+  0.2+    190602 G34  0.2+  0.1-
    150803 F51  0.1+  0.0     190501 094  0.1-  0.4-    190602 G34  0.1+  0.2-
    151208 F51  0.6+  0.2-    190501 094  0.0   0.4-    190602 G34  0.4+  0.1+
    151208 F51  0.3+  0.3-    190501 094  0.1-  0.4-    190602 I52  0.0   0.0
    151208 F51  0.1-  0.2-    190501 094  0.0   0.2-    190602 I52  0.1-  0.1-
    170930 F51  0.1-  0.1-    190501 A53  0.2+  0.3+    190602 I52  0.0   0.1-
    190416 T05  0.1-  0.1-    190502 K87  0.0   0.3-    190602 I52  0.0   0.0
    190416 T05  0.1-  0.1-    190502 K87  0.1-  0.2-    190603 I41  0.1+  0.1+
    190416 T05  0.1+  0.2-    190502 K87  0.1-  0.3-    190603 H21  0.1-  0.1-
    190416 T05  0.0   0.1-    190502 323  0.4+  2.3+    190603 H21  0.1-  0.2-
    190416 Q62  0.1-  0.1-    190502 323  0.1-  0.3+    190603 H21  0.1-  0.2-
    190416 Q62  0.2+  0.1+    190502 323  0.5+  1.6+    190603 I41  0.1+  0.1+
    190416 Q62  0.1+  0.2-    190502 323  0.5+  1.7+    190603 I41  0.0   0.2+
    190416 Q62  0.2+  0.1-    190502 323  0.3+  2.2+    190603 I41  0.1+  0.1+
    190416 Q62  0.2+  0.1+    190503 094  0.0   0.5+    190603 I41  0.1+  0.1+
    190416 Q62  0.1+  0.6-    190503 094  0.3-  0.0     190603 I41  0.1+  0.1+
    190416 Q62  0.1+  0.0     190503 094  0.2+  0.0     190603 703  0.2-  0.3-
    190416 Q62  0.1+  0.0     190503 094  0.3+  0.1+    190603 703  0.1+  0.1-
    190416 Q62  0.0   0.2-    190503 323  0.1-  0.0     190603 703  0.1-  0.1+
    190416 L29  0.0   0.3+    190503 323  0.2-  0.2-    190603 703  0.2+  0.1+
    190416 L29  0.3+  0.0     190503 089  0.1-  0.0     190603 Z22  0.0   0.6+
    190416 L29  0.8-  0.2+    190503 089  0.2-  0.3-    190603 Z22  0.1+  0.9+
    190416 L29  1.1-  0.3+    190503 089  0.0   0.0     190604 Z22  0.7-  0.2-
    190417 X31  0.3-  0.0     190503 089  0.1-  0.3-    190604 Z22  0.4-  0.1+
    190417 X31  0.6-  0.1-    190503 089  0.2-  0.1-    190604 Z22  0.0   0.0
    190417 X31  0.0   0.1-    190503 089  0.1-  0.1-    190604 Z22  0.1-  0.1+
    190417 X31  0.2-  0.1-    190503 089  0.1-  0.0     190606 I41  0.1+  0.1+
    190417 I47  0.1-  0.1+    190503 089  0.1+  0.1+    190606 I41  0.1+  0.1+
    190417 I47  0.0   0.1-    190503 089  0.3+  0.3-    190606 I41  0.1+  0.1+
    190417 I47  0.3+  0.1-    190503 089  0.2-  0.5-    190606 I41  0.1+  0.2+
    190417 I47  0.3-  0.4-    190504 703  0.1-  0.1-    190607 Z22  0.1+  0.1-
    190417 I47  0.1-  0.2-    190504 703  0.3+  0.2-    190607 Z22  0.2+  0.1-
    190417 I47  0.1-  0.2-    190504 703  0.1-  0.2-    190607 Z22  0.2-  0.6-
    190417 I47  0.0   0.1+    190504 703  0.1-  0.0     190607 Z22  0.1-  0.3+
    190417 I47  0.2+  0.2+    190504 I52  0.1-  0.2-    190607 Z22  0.2+  0.0
    190417 W85  0.1+  0.4+    190504 I52  0.1-  0.2-    190607 Z22  0.0   0.4-
    190417 W85  0.0   0.4+    190504 I52  0.0   0.2-    190608 Z22  0.3-  0.1-
    190417 W85  0.0   0.4+    190504 I52  0.0   0.2-    190608 Z22  0.5-  0.5-
    190417 W85  0.1-  0.4+    190504 089  0.2+  0.1-    190608 Z22  0.3-  0.1+
    190417 I47  0.1+  0.1-    190504 089  0.1+  0.2-    190608 Z22  0.4-  1.1+
    190417 W88  0.1-  0.0     190504 089  0.0   0.3-    190608 Z22  0.8-  0.1+
    190417 W88  0.0   0.3+    190504 089  0.1-  0.1-    190608 Z22  0.0   0.7+
    190417 W88  0.0   0.0     190504 089  0.1+  0.3-    190608 G40  0.5-  0.3+
    190418 X31  0.3-  0.3-    190504 089  0.1+  0.0     190608 G40  0.3-  0.0
    190418 X31  0.1-  0.2-    190504 089  0.1-  0.3-    190608 G40  0.2-  0.1-
    190418 X31  0.1-  0.3+    190504 089  0.1+  0.2-    190608 G40  0.0   0.3+
    190418 I47  0.3+  0.0     190504 089  0.3+  0.0     190608 A17  0.1+  0.2-
    190418 I47  0.1+  0.1+    190505 I52  0.1-  0.2-    190608 A17  0.1+  0.2-
    190418 I47  0.3+  0.1+    190505 I52  0.0   0.2-    190608 A17  0.1+  0.0
    190418 I47  0.1+  0.2+    190505 I52  0.0   0.2-    190610 I41  0.0   0.1+
    190418 I47  0.3+  0.5+    190505 I52  0.0   0.2-    190610 I41  0.0   0.1+
    190418 E23  0.1+  0.2+    190505 186  0.1-  0.2-    190610 I41  0.0   0.0
    190418 E23  0.0   0.2+    190505 186  0.2-  0.2-    190611 I41  0.0   0.0
    190418 E23  0.0   0.3+    190505 186  0.1+  0.0     190611 I41  0.2+  0.0
    190418 Q62  0.0   0.1-    190505 186  0.1+  0.1+    190611 I41  0.0   0.0
    190418 900  0.1-  0.0     190506 I52  0.0   0.2-    190611 I41  0.0   0.0
    190418 Q62  0.0   0.1+    190506 I52  0.0   0.1-    190611 I41  0.0   0.0
    190418 900  0.1+  0.2-    190506 I52  0.0   0.1-    190611 I41  0.1+  0.0
    190418 Q62  0.0   0.5-    190506 I52  0.2-  0.1-    190613 L04  0.4-  0.0
    190418 Q62  0.0   0.0     190506 L39  0.2+  0.1+    190613 L04  0.3-  0.2+
    190418 Q62  0.0   0.1-    190506 L39  0.1-  0.3+    190620 T08  0.2-  0.5-
    190418 Q62  0.1+  0.4+    190506 L39  0.0   0.0     190620 T08  0.1+  0.2+
    190418 Q62  0.2-  0.3-    190506 L39  0.2+  0.3+    190620 T08  0.1+  0.2-
    190418 L01  0.2-  0.1-    190506 L19  0.1-  0.1-    190620 T08  0.1-  0.1-
    190418 L01  0.1-  0.1-    190506 L19  0.0   0.1-    190620 L01  0.2-  0.0
    190418 L01  0.2-  0.1-    190506 L19  0.1-  0.2-    190620 L01  0.1-  0.1+
    190418 L01  0.3-  0.1-    190506 L19  0.0   0.1+    190620 L01  0.1-  0.0
    190418 L01  0.1-  0.2-    190506 L19  0.2-  0.1-    190620 J95  0.0   0.0
    190418 L01  0.0   0.1-    190507 160  0.2+  0.2+    190620 L01  0.1+  0.0
    190418 L01  0.1-  0.6-    190507 160  0.3-  0.2+    190620 L01  0.1-  0.1-
    190418 L01  0.2+  0.4-    190507 160  0.3-  0.1-    190620 J95  0.1+  0.1+
    190419 H01  0.0   0.2-    190507 I15  0.0   0.1-    190620 L01  0.1-  0.1-
    190419 H01  0.1-  0.1-    190507 I15  0.0   0.1-    190620 J95  0.0   0.1-
    190419 H01  0.0   0.1-    190507 I15  0.2-  0.2-    190621 G40  0.0   0.2+
    190419 H01  0.0   0.1-    190507 G40  0.0   0.3+    190621 G40  0.0   0.1-
    190419 I47  0.1-  0.2-    190507 G40  0.5+  0.3-    190621 G40  0.2+  0.0
    190419 I47  0.0   0.2-    190507 703  0.1+  0.1-    190621 G40  0.2-  0.0
    190419 I47  0.1-  0.2-    190507 703  0.1-  0.2-    190621 G40  0.2-  0.1+
    190419 I47  0.1-  0.1-    190507 703  0.1-  0.2-    190621 H21  0.0   0.2-
    190419 I47  0.3-  0.1-    190507 703  0.1+  0.6-    190621 H21  0.1-  0.1-
    190419 Q62  0.0   0.1+    190508 I52  0.0   0.2-    190621 H21  0.1-  0.0
    190419 Q62  0.0   0.1-    190508 I52  0.1-  0.2-    190621 I52  0.2+  0.0
    190419 Q62  0.1-  0.1+    190508 I52  0.0   0.2-    190621 I52  0.0   0.1-
    190419 Q62  0.1+  0.2+    190508 I52  0.1-  0.2-    190621 I52  0.1-  0.1+
    190419 Q62  0.0   0.1+    190508 Z80  0.1-  0.2+    190621 I52  0.0   0.2-
    190419 900  0.2-  0.3-    190508 Z80  0.1-  0.3-    190623 I41  0.1+  0.1-
    190419 900  0.0   0.2-    190508 Z80  0.1-  0.3-    190623 I41  0.2+  0.0
    190419 595  0.2-  0.3+    190508 Z80  0.4+  0.0     190623 I41  0.2+  0.1-
    190419 595  0.1-  0.4-    190508 Z80  0.2-  0.3+    190623 I41  0.0   0.1-
    190419 595  0.2-  0.1-    190508 Z80  0.0   0.1+    190624 204  0.1-  0.0
    190420 104  0.0   0.1-    190508 Z80  0.3+  0.1+    190624 204  0.2+  0.0
    190420 104  0.0   0.1-    190508 Z80  0.1-  0.0     190624 204  0.0   0.1+
    190420 104  0.5+  0.1+    190508 Z80  0.1-  0.4-    190624 703  0.1-  0.0
    190420 C95  0.1-  0.0     190508 Z80  0.3+  0.1-    190624 703  0.1+  0.2+
    190420 C95  0.5+  0.6-    190508 Z80  0.1+  0.4+    190624 703  0.5+  0.3-
    190420 C95  0.4+  0.3-    190510 T08  0.0   0.1-    190624 703  2.2+  2.0-
    190420 C95  0.0   0.2-    190510 T08  0.0   0.1-    190624 G40  0.0   0.1-
    190420 C95  0.3+  0.1+    190510 T08  0.1-  0.0     190624 G40  0.1+  0.1-
    190421 H21  0.3+  0.0     190510 T08  0.0   0.1-    190624 G40  0.1-  0.1-
    190421 H21  0.0   0.3-    190510 G40  0.0   0.0     190624 G40  0.0   0.1+
    190421 H21  0.0   0.1-    190510 G40  0.2-  0.0     190624 G40  0.2+  0.0
    190421 H21  0.1+  0.2+    190510 G40  0.1+  0.1+    190625 F51  0.0   0.0
    190421 H21  0.0   0.1+    190511 G40  0.1+  0.0     190625 F51  0.0   0.0
    190421 H21  0.1+  0.0     190511 G40  0.2-  0.1+    190625 F51  0.0   0.0
    190421 H21  0.0   0.1+    190511 Z43  0.2+  0.1-    190625 B67  0.2+  0.0
    190421 I47  0.3+  0.4-    190511 Z43  0.2+  0.2-    190625 B67  0.4+  0.1-
    190421 I47  0.1+  0.2-    190511 Z43  0.1+  0.2-    190625 B67  0.4+  0.3-
    190421 I47  0.1+  0.0     190511 Z43  0.2+  0.1-    190626 I52  0.0   0.0
    190421 323  0.4+  1.3+    190511 Z43  0.1+  0.1-    190626 I52  0.0   0.1-
    190421 323  0.4+  0.3+    190512 186  0.1+  0.1-    190626 I52  0.1+  0.0
    190421 323  0.5+  1.2+    190512 186  0.0   0.2-    190626 I52  0.1+  0.1-
    190421 323  0.1+  0.3-    190512 186  0.1-  0.0     190628 703  0.3-  0.5+
    190421 K87  0.7+  0.3-    190512 186  0.1-  0.3-    190628 703  0.4+  0.2+
    190422 K87  0.6-  0.7+    190512 089  0.3+  0.0     190628 703  0.1-  0.1-
    190422 K87  0.2-  0.3-    190512 089  0.0   0.3+    190628 703  0.1+  0.2+
    190422 K87  0.0   0.4-    190512 089  0.1+  0.4+    190701 G40  0.3+  0.0
    190422 K87  0.2-  0.6-    190512 089  0.1-  0.1-    190701 G40  0.2+  0.1-
    190422 323  0.2+  1.4+    190512 089  0.1+  0.0     190701 G40  0.1-  0.0
    190422 323  0.3+  0.1+    190512 089  0.5+  0.2-    190701 G40  0.2+  0.0
    190422 323  0.5+  1.8+    190512 089  0.2+  0.4-    190701 G40  0.1+  0.0
    190422 323  0.1+  0.2+    190512 Z80  0.1-  0.0     190701 I41  0.0   0.2-
    190422 323  0.0   0.0     190512 J69  0.0   0.1+    190701 I41  0.1+  0.1-
    190423 I52  0.2-  0.2-    190512 Z80  0.1-  0.0     190701 I41  0.2+  0.1-
    190423 I52  0.3-  0.5-    190512 J69  0.1-  0.0     190701 I41  0.1+  0.2-
    190423 I52  0.1-  0.0     190512 Z80  0.0   0.2-    190702 G96  0.0   0.1+
    190423 I52  0.1-  0.0     190512 J69  0.1+  0.0     190702 G96  0.2-  0.2+
    190423 L18  0.1-  0.3-    190512 J69  0.1+  0.2-    190702 G96  0.1+  0.1+
    190423 L18  0.3-  0.2+    190512 Z80  0.1-  0.2-    190702 G96  0.1-  0.2+
    190423 L18  0.4-  0.2-    190512 Z80  0.1+  0.1-    190702 I52  0.0   0.0
    190423 L18  0.0   0.1+    190512 Z80  0.1-  0.1-    190702 G96  0.1+  0.0
    190423 L18  0.1+  0.1-    190512 Z80  0.1-  0.1-    190702 G96  0.2-  0.1+
    190423 L18  0.1-  0.2-    190512 Z80  0.2-  0.1+    190702 I52  0.1+  0.0
    190423 L18  0.1-  0.1+    190512 Z80  0.1+  0.1-    190702 G96  0.0   0.1+
    190423 L18  0.4+  0.6-    190512 Z80  0.1+  0.2-    190702 G96  0.1+  0.1+
    190423 L18  0.3-  0.5-    190513 G96  0.0   0.1-    190702 I52  0.0   0.0
    190423 L18  0.1+  0.5-    190513 G96  0.0   0.1-    190703 T12  0.0   0.0
    190424 K87  0.9-  0.1-    190513 G96  0.4+  0.3-    190703 T12  0.0   0.0
    190424 K87  0.3-  0.3-    190513 G96  0.1+  0.1-    190703 T12  0.0   0.0
    190424 K87  0.2-  0.0     190513 I52  0.0   0.1-    190703 T12  0.0   0.0
    190424 I52  0.1-  0.1-    190513 I52  0.0   0.2-    190703 T12  0.0   0.0
    190424 I52  0.0   0.2-    190513 I52  0.1-  0.0     190705 703  0.6+  0.3-
    190424 I52  0.0   0.1-    190513 I52  0.0   0.2-    190705 703  0.3+  0.2-
    190424 I52  0.0   0.2-    190513 186  0.2-  0.2-    190705 703  1.3+  0.0
    190424 323  0.0   0.1-    190513 186  0.1-  0.2-    190705 703  0.3+  0.1+
    190424 323  0.1-  0.0     190513 186  0.0   0.0     190705 703  0.6-  0.2+
    190424 323  0.6+  1.8+    190513 186  0.3-  0.2-    190705 703  0.3-  0.3+
    190424 323  0.5+  1.9+    190513 K38  0.0   0.1-    190705 703  0.4+  0.4+
    190424 089  0.3+  0.2-    190513 K38  0.0   0.0     190705 703  1.0-  0.8+
    190424 089  0.1+  0.3-    190514 K38  0.0   0.0     190710 H21  0.1-  0.1+
    190424 089  0.1-  0.3-    190514 238  2.0+  0.1+    190710 H21  0.0   0.1-
    190424 089  0.1+  0.5-    190514 238  0.0   0.0     190710 H21  0.0   0.0
    190424 089  0.1-  0.5-    190514 204  0.0   0.0     190710 I52  0.2+  0.0
    190424 089  0.4+  0.5-    190514 204  0.0   0.0     190710 I52  0.8-  0.2+
    190424 089  0.1+  0.4+    190514 204  0.1-  0.0     190710 I52  0.1+  0.0
    190424 089  0.2+  0.7-    190514 204  0.0   0.1-    190710 I52  0.0   0.1+
    190424 089  0.3+  0.3+    190514 204  0.0   0.0     190710 703  0.2+  0.2+
    190425 G40  0.0   0.1-    190514 954  0.3+  0.5+    190710 703  0.6-  0.3+
    190425 G40  0.1-  0.2-    190514 954  0.5+  0.5+    190710 703  0.7-  0.9+
    190425 G40  0.0   0.0     190514 954  0.0   0.7+    190710 703  0.3-  0.3+
    190425 Y00  0.0   0.2+    190514 954  0.3+  0.7+    190711 I52  0.1+  0.1-
    190425 Y00  0.3-  0.2-    190514 954  0.2+  0.6+    190711 I52  0.1+  0.1-
    190425 Y00  0.6+  0.6+    190514 H21  0.0   0.1+    190711 I52  0.3+  0.0
    190425 I52  0.1-  0.2-    190514 H21  0.1+  0.1+    190713 H21  0.1-  0.1+
    190425 I52  0.1-  0.1-    190514 H21  0.0   0.2+    190713 H21  0.2-  0.0
    190425 I52  0.1-  0.2-    190514 H21  0.1-  0.1+    190713 H21  0.1-  0.1+
    190425 I52  0.1-  0.2-    190514 H21  0.1-  0.2+    190713 H21  0.2-  0.1+
    190425 G96  0.0   0.3-    190514 H21  0.0   0.0     190713 H21  0.2-  0.1+
    190425 G96  0.1+  0.3-    190514 H21  0.2+  0.1+    190713 H21  0.2-  0.1+
    190425 G96  0.1-  0.3-    190514 H21  0.0   0.1+    190714 H21  0.1-  0.0
    190425 G96  0.0   0.2-    190514 H21  0.0   0.1+    190714 H21  0.3-  0.1-
    190425 323  0.3+  0.3+    190514 H21  0.1+  0.1+    190714 H21  0.1+  0.1+
    190425 323  0.0   0.2+    190514 H21  0.0   0.0     190714 H21  0.2+  0.1+
    190425 323  0.0   0.1+    190514 H21  0.1+  0.1+    190714 H21  0.2+  0.5-
    190425 089  0.0   0.4-    190514 H21  0.1+  0.0     190714 H21  0.0   0.5-
    190425 089  0.0   0.3-    190514 H21  0.0   0.1+    190715 F51  0.1+  0.0
    190425 089  0.1+  0.6-    190514 H21  0.0   0.1+    190715 F51  0.0   0.0
    190425 089  0.1+  0.3-    190514 H21  0.0   0.1+    190715 F51  0.0   0.1+
    190425 089  0.1-  0.4-    190514 H21  0.0   0.0     190715 F51  0.1+  0.0
    190425 089  0.1+  0.6-    190514 703  0.5-  0.2-    190717 F51  0.0   0.2+
    190425 089  0.1-  0.2-    190514 703  0.1-  0.1+    190717 F51  0.0   0.1-
    190425 089  0.1-  0.2-    190514 703  0.1-  0.1+    190717 F51  0.0   0.2+
    190425 089  0.1-  0.4-    190514 703  0.3+  0.2+    190717 F51  0.1+  0.1-
    190425 089  0.1-  0.4-    190514 186  0.0   0.1+    190719 H21  0.0   0.0
    190426 I52  0.1-  0.2-    190514 186  0.0   0.0     190719 H21  0.0   0.0
    190426 I52  0.1-  0.1-    190514 186  0.2+  0.4+    190719 H21  0.1+  0.1-
    190426 I52  0.0   0.3-    190514 186  0.0   0.1+    190719 H21  0.2+  0.0
    190426 I52  0.1-  0.2-    190514 G34  0.0   0.1-    190719 H21  0.1+  0.0
    190426 703  0.3-  0.5-    190514 G34  0.1+  0.3-    190720 H21  0.3+  0.0
    190426 703  0.4-  1.0-    190514 G34  0.3+  0.3-    190720 H21  0.2+  0.3+
    190426 703  0.0   0.3-    190514 G34  0.1+  0.2-    190720 H21  0.1+  0.3+
    190426 703  0.2-  0.5-    190514 Z80  0.2-  0.2-    190720 H21  0.1+  0.1+
    190426 323  0.1+  0.1+    190514 Z80  0.1-  0.2-    190720 H21  0.1+  0.2+
    190426 323  0.1+  0.2+    190514 Z80  0.1+  0.0     190720 H21  0.1+  0.2+
    190426 323  0.1+  1.5+    190514 Z80  0.0   0.2-    190720 F51  0.0   0.0
    190426 323  0.1+  0.0     190514 Z80  0.0   0.1-    190720 F51  0.0   0.0
    190426 L18  0.4-  0.2-    190514 Z80  0.1-  0.0     190720 F51  0.0   0.0
    190426 L18  0.1-  0.3+    190515 Z80  0.1-  0.1-    190720 F51  0.1+  0.0
    190426 L18  0.2-  0.2+    190515 Z80  0.0   0.0     190723 H21  0.1+  0.1+
    190426 L18  0.5+  0.8+    190515 Z80  0.1+  0.2-    190723 H21  0.0   0.0
    190426 L18  0.0   0.0     190515 Z80  0.3-  0.0     190723 H21  0.1-  0.0
    190426 L18  0.3+  0.0     190515 Z80  0.2-  0.2-    190723 H21  0.0   0.1-
    190426 L18  0.2+  0.5+    190515 Z80  0.0   0.1-    190723 H21  0.1+  0.1-
    190426 L18  0.3-  0.6+    190515 Z80  0.1-  0.4-    190724 F51  0.1+  0.1+
    190426 089  0.0   0.3-    190515 Z80  0.0   0.2-    190724 F51  0.0   0.0
    190426 089  0.3-  0.3-    190515 Z80  0.1-  0.2-    190725 H21  0.1+  0.0
    190426 089  0.1+  0.5-    190515 Z80  0.0   0.2-    190725 H21  0.0   0.1+
    190426 089  0.1-  0.2-    190516 160  0.1-  0.1-    190725 H21  0.0   0.0
    190426 089  0.2-  0.4-    190516 160  0.5+  0.1+    190725 H21  0.1-  0.0
    190426 089  0.1+  0.3-    190516 160  0.2-  0.1-    190725 H21  0.1-  0.1+
    190426 089  0.0   0.1-    190516 160  0.0   0.1+    190726 H21  0.2+  0.2+
    190426 089  0.1-  0.2-    190516 160  0.1-  0.1+    190726 H21  0.1+  0.0
    190426 089  0.1+  0.4-    190516 160  0.0   0.1-    190726 H21  0.2+  0.0
    190426 089  0.1-  0.1-    190516 108  0.1+  0.3+    190726 H21  0.1+  0.0
    190427 I52  0.1-  0.3-    190516 108  0.2-  0.3+    190726 H21  0.1-  0.2+
    190427 I52  0.1-  0.2-    190516 108  0.1-  0.1-    190729 H21  0.0   0.0
    190427 I52  0.1-  0.1-    190520 094  0.0   0.1-    190729 H21  0.1-  0.0
    190427 I52  0.1-  0.3-    190520 094  0.0   0.1+    190729 H21  0.1-  0.0
    190427 Y00  1.2-  0.1-    190520 094  0.0   0.0     190729 H21  0.1-  0.1+
    190427 Y00  1.6+  0.7-    190520 094  0.1+  0.2-    190729 H21  0.0   0.1-
    190427 Y00  0.5-  1.5-    190520 094  0.0   0.1-    190801 H21  0.1+  0.0
    190427 323  0.0   0.3+    190520 Z80  0.1+  0.2+    190801 H21  0.1-  0.2+
    190427 323  0.1-  0.3+    190520 Z80  0.3+  0.1-    190801 H21  0.1+  0.1+
    190427 323  0.2+  2.2+    190520 Z80  0.0   0.4+    190801 H21  0.3+  0.1+
    190427 323  0.3-  0.1+    190520 Z80  0.3+  0.1-    190801 H21  0.1+  0.2+
    190427 323  0.1+  2.0+    190520 Z80  0.1+  0.2+    190801 H21  0.2+  0.1-
    190427 323  0.3-  0.1+    190520 Z80  0.2+  0.0     190801 H21  0.1-  0.1+
    190429 323  0.4+  1.9+    190520 Z80  0.0   0.2-    190808 H21  0.1-  0.1-
    190429 323  0.1+  0.2+    190521 J69  0.3-  0.2+    190808 H21  0.0   0.1-
    190429 323  0.3+  1.7+    190521 J69  0.1-  0.1+    190808 H21  0.2+  0.1+
    190429 323  0.0   0.0     190522 K63  0.3-  0.1+    190808 H21  0.1+  0.1+
    190429 323  0.3+  1.7+    190522 K63  0.2-  0.2-    190808 H21  0.0   0.0
    190429 323  0.2+  0.2+    190522 K63  0.1-  0.1+    190809 F51  0.1+  0.1+
    190429 160  0.0   0.2+    190524 I52  0.1+  0.1-    190809 F51  0.0   0.1+
    190429 160  0.1-  0.2+    190524 I52  0.0   0.1-    190810 H21  0.1-  0.1-
    190429 160  0.2-  0.3+    190524 I52  0.0   0.1-    190810 H21  0.2-  0.0
    190430 K80  0.1-  0.3-    190524 I52  0.0   0.1-    190810 H21  0.4-  0.1-
    190430 K80  0.1-  0.3-    190525 G96  0.0   0.1-    190810 H21  0.5-  0.0
    190430 K80  0.1-  0.3-    190525 G96  0.0   0.1-    190810 H21  0.1-  0.0
    190501 K87  0.1-  0.3-    190525 G96  0.0   0.1-    190817 L01  0.2-  0.1-
    190501 K87  0.0   0.3-    190525 G96  0.0   0.1-    190817 L01  0.5+  0.3-
    190501 K87  0.0   0.1-    190525 I76  0.2+  0.0     190817 L01  0.1+  0.1-
    190501 K87  0.2-  0.5-    190525 I76  0.1+  0.1+    190817 L01  0.2+  0.2+
    190501 K87  0.1-  0.4-    190525 I76  0.1-  0.1+    190822 F51  0.2+  0.0
    190501 K87  0.1-  0.3-    190525 I76  0.0   0.3+    190822 F51  0.1+  0.0
    190501 B66  1.1+  0.6+    190525 I76  0.2-  0.1-    190822 F51  0.0   0.0
    190501 094  0.0   0.2-    190525 I76  0.2+  0.1-    190825 H21  0.2+  0.3-
    190501 094  0.1+  0.1-    190527 J27  0.0   0.1-    190825 H21  0.3+  0.6-
    190501 094  0.2+  0.1-    190527 J27  0.1-  0.3-    190825 H21  0.4+  0.6-
    190501 094  0.0   0.1-    190527 J27  0.1-  0.2-    190825 H21  0.3+  0.6-
    190501 B66  0.6+  0.5+    190529 G40  0.3-  0.0     190827 703  2.0-  0.8+
    190501 B66  0.3+  0.5+    190529 G40  0.0   0.1+    190827 703  0.2+  0.2-
    190501 I52  0.1-  0.2-    190529 G40  0.1-  0.0     190827 703  0.9-  0.1+
    190501 I52  0.1-  0.3-    190529 K87  0.1+  0.1+    190827 G96  0.1+  0.0
    190501 I52  0.0   0.3-    190529 K87  0.1+  0.3+    190827 G96  0.0   0.1+
    190501 I52  0.1-  0.2-    190529 K87  0.1+  0.1-    190827 G96  0.0   0.1+
    190501 323  0.0   1.8+    190530 703  0.4-  0.5-    190827 G96  0.1-  0.2+
    190501 323  0.2+  0.4+    190530 703  0.1-  0.2-    190912 695  0.0   0.2+
    190501 C97  0.2-  0.2-    190530 703  0.0   0.2-    190912 695  0.0   0.4+
    190501 C97  0.5-  0.6-    190530 703  0.2-  0.0     190912 695  0.1+  0.3+
    190501 C97  0.8-  1.6-    190531 Z43  0.1+  0.4-    190922 691  0.1-  0.9+
    190501 C97  0.4-  0.2+    190531 Z43  0.1+  0.3-    190922 691  0.1+  0.2+
    190501 C97  0.1-  0.9-    190531 Z43  0.1+  0.1+    190922 691  0.3+  0.2+
    190501 C97  0.5-  0.2+    190601 Z22  0.2-  0.1-    190924 T12  0.1+  0.0
    190501 C97  0.3+  0.5-    190601 Z22  0.5-  0.2-    190924 T12  0.0   0.0
    190501 323  0.3+  1.7+    190601 Z22  0.4-  0.0     190930 291  0.3+  0.9+
    190501 C97  0.5+  0.7+    190601 Z22  0.4-  0.0     190930 291  0.1+  0.2+
    190501 323  0.0   0.2-    190601 Z22  0.3-  0.1-
    190501 323  0.0   1.8+    190601 Z22  0.2-  0.1+
    
